Location: Arbon
(43.0005°N, 0.7472°E)
Time: 15:03:46
(UTC+00:00)

Envisat - Pass Details

Date: 04 November 2020
Orbit: 764 x 766 km, 98.1° (Epoch: 30 November)

Event Time Altitude Azimuth Distance (km) Brightness Sun altitude
Rises 18:17:58 0° 208° (SSW) 3,220 6.7 -17.4°
Reaches altitude 10° 18:21:02 10° 228° (SW) 2,299 6.2 -17.9°
Maximum altitude 18:24:22 18° 269° (W) 1,838 6.0 -18.5°
Drops below altitude 10° 18:27:43 10° 311° (NW) 2,310 6.1 -19.2°
Sets 18:30:49 0° 330° (NNW) 3,241 6.6 -19.7°
